Weather History for New River MCAS, NC

Change the Weather History Date:

Monday, February 27, 2012

  Actual Average Record
Temperature  
Mean Temperature 48 °F -  
Max Temperature 63 °F 59 °F 79 °F (2011)
Min Temperature 34 °F 39 °F 21 °F (2006)
Degree Days  
Heating Degree Days 16    
Moisture  
Dew Point 48 °F    
Average Humidity 85    
Maximum Humidity 96    
Minimum Humidity 67    
Precipitation  
Precipitation 0.02 in - - ()
Sea Level Pressure  
Sea Level Pressure 30.40 in    
Wind  
Wind Speed 2 mph (South)    
Max Wind Speed 12 mph    
Max Gust Speed -    
Visibility 10 miles    
Events Rain    
Averages and records for this station are not official NWS values.
T = Trace of Precipitation, MM = Missing Value Source: NWS Daily Summary

Daily Weather History Graph

Daily Weather History Graph

Search for Another Location

Airport:

Trip Planner

Search our weather history database for the weather conditions in past years. The results will help you decide how hot, cold, wet, or windy it might be!

Date:

Astronomy

Feb. 27, 2012 Rise Set
Actual Time 6:42 AM EST 6:03 PM EST
Civil Twilight 6:16 AM EST 6:28 PM EST
Nautical Twilight 5:47 AM EST 6:58 PM EST
Astronomical Twilight 5:18 AM EST 7:27 PM EST
Moon 9:26 AM EST (2/27) 11:38 PM EST (2/27)
Length of Visible Light 12h 12m
Length of Day
11h 21m
Waxing Crescent, 29% of the Moon is Illuminated
Feb 27
Waxing Crescent
Feb 29
First Quarter
Mar 8
Full
Mar 14
Last Quarter
Mar 22
New

Hourly Weather History & Observations

Time (EST) Temp. Windchill Dew Point Humidity Pressure Visibility Wind Dir Wind Speed Gust Speed Precip Events Conditions
12:56 AM 34.0 °F - 32.0 °F 92% 30.48 in 10.0 mi Calm Calm - N/A   Clear
1:56 AM 36.0 °F - 33.1 °F 89% 30.48 in 10.0 mi Calm Calm - N/A   Mostly Cloudy
2:56 AM 39.0 °F - 37.0 °F 93% 30.48 in 10.0 mi Calm Calm - N/A   Overcast
3:56 AM 42.1 °F - 37.9 °F 85% 30.48 in 10.0 mi Calm Calm - N/A   Overcast
4:56 AM 43.0 °F - 37.9 °F 82% 30.48 in 10.0 mi Calm Calm - N/A   Overcast
5:56 AM 45.0 °F - 42.1 °F 90% 30.47 in 10.0 mi Calm Calm - N/A   Overcast
6:56 AM 45.0 °F 43.5 °F 41.0 °F 86% 30.47 in 10.0 mi North 3.5 mph - N/A   Overcast
7:56 AM 46.9 °F - 43.0 °F 86% 30.46 in 10.0 mi East 6.9 mph - N/A   Overcast
8:56 AM 50.0 °F - 44.1 °F 80% 30.46 in 10.0 mi Calm Calm - N/A   Mostly Cloudy
9:56 AM 53.1 °F - 45.0 °F 74% 30.46 in 10.0 mi Calm Calm - N/A   Mostly Cloudy
10:56 AM 57.0 °F - 46.9 °F 69% 30.44 in 10.0 mi Calm Calm - N/A   Overcast
11:56 AM 60.1 °F - 50.0 °F 69% 30.43 in 10.0 mi SE 3.5 mph - N/A   Overcast
12:56 PM 62.1 °F - 52.0 °F 70% 30.40 in 10.0 mi South 6.9 mph - 0.00 in   Overcast
1:56 PM 60.1 °F - 53.1 °F 78% 30.38 in 10.0 mi South 8.1 mph - 0.00 in Rain Light Rain
2:56 PM 60.1 °F - 54.0 °F 80% 30.37 in 10.0 mi South 9.2 mph - 0.00 in Rain Light Rain
3:56 PM 63.0 °F - 52.0 °F 67% 30.35 in 10.0 mi South 11.5 mph - 0.00 in Rain Light Rain
4:56 PM 60.1 °F - 53.1 °F 78% 30.35 in 10.0 mi SSW 4.6 mph - 0.00 in Rain Light Rain
5:56 PM 59.0 °F - 52.0 °F 78% 30.35 in 10.0 mi Calm Calm - 0.00 in Rain Light Rain
6:56 PM 57.0 °F - 52.0 °F 83% 30.35 in 10.0 mi East 3.5 mph - 0.00 in Rain Light Rain
7:43 PM 55.4 °F - 53.6 °F 94% 30.34 in 8.0 mi Calm Calm - 0.00 in Rain Light Rain
7:56 PM 55.9 °F - 54.0 °F 93% 30.35 in 8.0 mi WNW 5.8 mph - 0.01 in Rain Light Rain
8:08 PM 55.4 °F - 53.6 °F 94% 30.34 in 10.0 mi NW 3.5 mph - 0.00 in Rain Light Rain
8:56 PM 55.9 °F - 54.0 °F 93% 30.35 in 10.0 mi Calm Calm - 0.00 in Rain Light Rain
9:56 PM 55.0 °F - 54.0 °F 96% 30.35 in 10.0 mi Calm Calm - 0.00 in Rain Light Rain
10:26 PM 55.4 °F - 53.6 °F 94% 30.34 in 10.0 mi NW 3.5 mph - 0.01 in Rain Light Rain
10:56 PM 55.9 °F - 54.0 °F 93% 30.35 in 10.0 mi Calm Calm - 0.01 in Rain Light Rain
11:56 PM 55.0 °F - 54.0 °F 96% 30.34 in 10.0 mi Calm Calm - 0.00 in Rain Light Rain